Home   Weather   Washington DC   Past weeks

Flag for USA Past Weather in Washington DC, USA — Yesterday and Last 2 Weeks

Now
49 °F

Passing clouds.


Feels Like: 45 °F
Forecast: 35 / 45 °F
Wind: 8 mph from Southwest

Location: Reagan National Airport

Current Time: Feb 26, 2017 at 4:49:33 pm

Latest Report: Feb 26, 2017 at 3:52 pm


Visibility: 10 mi

Pressure: 30.15 "Hg

Humidity: 28%

Dew Point: 17 °F

Location of Washington DCLocation

Past Weather in Washington DC — Graph

°F

Washington DC Temperature Yesterday

Maximum temperature yesterday: 75 °F (at 11:52 am)
Minimum temperature yesterday: 44 °F (at 11:52 pm)
Average temperature yesterday: 60 °F

High & Low Weather Summary for the Past Weeks

 TemperatureHumidityPressure
High76 °F (Feb 24, 12:52 pm)97% (Feb 23, 12:52 am)30.36 "Hg (Feb 23, 12:52 am)
Low29 °F (Feb 17, 5:52 am)24% (Feb 20, 3:52 pm)29.43 "Hg (Feb 25, 2:18 pm)
Average50 °F59%29.91 "Hg
* Reported Feb 11 2:52 pm — Feb 26 2:52 pm, Washington DC, Weather by CustomWeather, © 2017

Note: Actual official high and low records may vary slightly from our data, if they occured in-between our weather recording intervals... More about our weather records

Advertising

Washington DC Weather History for the Previous 24 Hours

Scroll right to see more
 ConditionsComfort  
Time TempWeatherWind HumidityBarometerVisibility
2:52 pm
Sun, Feb 26
48 °FScattered clouds.17 mph29%30.15 "Hg10 mi
1:52 pm47 °FScattered clouds.14 mph32%30.14 "Hg10 mi
12:52 pm45 °FPassing clouds.9 mph34%30.15 "Hg10 mi
11:52 am42 °FScattered clouds.10 mph36%30.16 "Hg10 mi
10:52 am43 °FScattered clouds.15 mph38%30.16 "Hg10 mi
9:52 am40 °FScattered clouds.16 mph40%30.15 "Hg10 mi
8:52 am38 °FScattered clouds.16 mph41%30.14 "Hg10 mi
7:52 am37 °FScattered clouds.12 mph42%30.10 "Hg10 mi
6:52 am36 °FScattered clouds.12 mph44%30.07 "Hg10 mi
5:52 am37 °FPassing clouds.17 mph44%30.03 "Hg10 mi
4:52 am37 °FPassing clouds.9 mph46%29.99 "Hg10 mi
3:52 am39 °FPassing clouds.21 mph46%29.97 "Hg10 mi
2:52 am40 °FPassing clouds.13 mph47%29.95 "Hg10 mi
1:52 am42 °FOvercast.15 mph47%29.92 "Hg10 mi
12:52 am44 °FPassing clouds.18 mph43%29.89 "Hg10 mi
11:52 pm
Sat, Feb 25
44 °FPassing clouds.14 mph41%29.86 "Hg10 mi
10:52 pm46 °FPassing clouds.23 mph40%29.82 "Hg10 mi
9:52 pm49 °FPassing clouds.20 mph38%29.78 "Hg10 mi
8:52 pm52 °FPassing clouds.21 mph41%29.71 "Hg10 mi
7:52 pm55 °FPassing clouds.14 mph40%29.66 "Hg10 mi
6:52 pm55 °FPartly cloudy.10 mph53%29.63 "Hg10 mi
5:52 pm56 °FBroken clouds.15 mph55%29.60 "Hg10 mi
5:22 pm57 °FScattered clouds.16 mph60%29.59 "Hg10 mi
5:01 pm57 °FThundershowers. Partly sunny.18 mph64%29.59 "Hg10 mi
4:15 pm56 °FThundershowers. Mostly cloudy.16 mph72%29.53 "Hg10 mi
Weather by CustomWeather, © 2017

See weather overviewHow to use our weather pages